Home > Weather > Glennallen > Past weeks

Flag for U.S.A. Weather for the Past 2 Weeks in Glennallen, Alaska, U.S.A.

Now
28 °F

Sunny.


Feels Like: 23 °F
Forecast: 2 / 13 °F
Wind: 5 mph from North

Location: Gulkana Airport

Current Time: Feb 13, 2016 at 5:00:21 PM

Latest Report: Feb 13, 2016 at 3:53 PM


Visibility: 10 mi

Pressure: 29.59 "Hg

Humidity: 78%

Dew point: 22 °F

Location of GlennallenLocation

Historic Weather in Glennallen — Graph

°F

Glennallen Temperature Yesterday

Maximum temperature yesterday: 20 °F (at 12:53 PM)
Minimum temperature yesterday: 4 °F (at 11:53 PM)
Average temperature yesterday: 14 °F

High & Low Weather Summary for the Past Weeks

 TemperatureHumidityPressure
High28 °F (Feb 13, 11:53 AM)92% (Jan 29, 2:53 PM)30.34 "Hg (Jan 29, 2:53 PM)
Low-17 °F (Feb 2, 7:53 AM)73% (Feb 5, 2:53 PM)29.31 "Hg (Feb 4, 2:53 PM)
Average4 °F82%29.90 "Hg
* Reported Jan 29 2:53 PM — Feb 13 2:53 PM, Glennallen, Weather by CustomWeather, © 2016

Note: Actual official high and low records may vary slightly from our data, if they occured in-between our weather recording intervals... More about our weather records

Advertising

Glennallen Weather History for the Previous 24 Hours

 ConditionsComfort  
Time TempWeatherWind HumidityBarometerVisibility
2:53 PM
Sat, Feb 13
27 °FPassing clouds.3 mph85%29.62 "Hg10 mi
1:53 PM28 °FScattered clouds.No wind78%29.63 "Hg10 mi
12:53 PM27 °FPartly sunny.3 mph81%29.64 "Hg10 mi
11:53 AM28 °FSunny.5 mph81%29.64 "Hg10 mi
10:53 AM27 °FSunny.No wind81%29.63 "Hg10 mi
9:53 AM26 °FSunny.15 mph84%29.61 "Hg10 mi
8:53 AM24 °FSunny.12 mph84%29.61 "Hg10 mi
7:53 AM24 °FClear.13 mph88%29.59 "Hg10 mi
6:53 AM23 °FClear.13 mph88%29.58 "Hg10 mi
5:53 AM18 °FClear.10 mph88%29.57 "Hg10 mi
4:53 AM18 °FLow clouds.8 mph88%29.58 "Hg10 mi
4:03 AM12 °FPassing clouds.6 mph88%29.47 "Hg10 mi
2:53 AM9 °FClear.No wind84%29.57 "Hg10 mi
1:53 AM5 °FPassing clouds.3 mph83%29.57 "Hg10 mi
12:53 AM4 °FPassing clouds.No wind84%29.56 "Hg10 mi
11:53 PM
Fri, Feb 12
4 °FClear.No wind84%29.56 "Hg10 mi
10:53 PM6 °FPassing clouds.5 mph87%29.55 "Hg10 mi
9:53 PM7 °FClear.No wind87%29.55 "Hg10 mi
8:53 PM9 °FClear.No wind88%29.54 "Hg10 mi
7:53 PM14 °FPassing clouds.3 mph84%29.53 "Hg10 mi
6:53 PM15 °FPassing clouds.3 mph87%29.53 "Hg10 mi
5:53 PM19 °FClear.6 mph88%29.51 "Hg10 mi
Weather by CustomWeather, © 2016

See weather overviewHow to use our weather pages